This is the latest recevied weather packets stored in our database for station/object KC3QJO. If no packets are shown the sender has not sent any weather packets the latest 10 day(s).
| Time | Temp. | Humidity | Pressure | Rain* | Wind** | Luminosity | Snow |
|---|---|---|---|---|---|---|---|
| 1778151351 | 8.33° C | 77% | 1010.3 hPa | 0 mm | - | 47 W/m² | - |
| 1778148964 | 8.33° C | 81% | 1009.7 hPa | 0 mm | - | 12 W/m² | - |
| 1778148057 | 8.33° C | 80% | 1009.6 hPa | 0 mm | - | 0 W/m² | - |
| 1778143562 | 8.33° C | 83% | 1009.2 hPa | 0 mm | - | 0 W/m² | - |
| 1778143255 | 8.33° C | 83% | 1009.1 hPa | 0 mm | - | 0 W/m² | - |
| 1778142951 | 8.33° C | 84% | 1009 hPa | 0 mm | - | 0 W/m² | - |
| 1778142657 | 8.33° C | 85% | 1009.1 hPa | 0 mm | - | 0 W/m² | - |
| 1778141151 | 8.33° C | 86% | 1009.5 hPa | 0 mm | - | 0 W/m² | - |
| 1778140552 | 8.33° C | 86% | 1009.2 hPa | 0 mm | - | 0 W/m² | - |
| 1778139958 | 8.33° C | 86% | 1009.5 hPa | 0 mm | - | 0 W/m² | - |
| 1778138156 | 8.33° C | 85% | 1009.7 hPa | 0.25 mm | - | 0 W/m² | - |
| 1778137551 | 8.33° C | 85% | 1009.7 hPa | 0.25 mm | - | 0 W/m² | - |
| 1778135751 | 8.89° C | 84% | 1009.8 hPa | 0 mm | - | 0 W/m² | - |
| 1778134851 | 8.89° C | 83% | 1009.7 hPa | 0.51 mm | - | 0 W/m² | - |
| 1778133051 | 9.44° C | 81% | 1009.9 hPa | 0.76 mm | - | 0 W/m² | - |
| 1778131853 | 9.44° C | 79% | 1009.4 hPa | 0.51 mm | - | 0 W/m² | - |
| 1778131551 | 9.44° C | 78% | 1009.6 hPa | 0.25 mm | - | 0 W/m² | - |
| 1778131251 | 10° C | 77% | 1009.3 hPa | 0.25 mm | - | 0 W/m² | - |
| 1778129451 | 10° C | 73% | 1008.8 hPa | 0 mm | - | 0 W/m² | - |
| 1778128851 | 10° C | 74% | 1008.8 hPa | 0 mm | - | 0 W/m² | - |
| 1778128551 | 10° C | 74% | 1008.7 hPa | 0 mm | - | 0 W/m² | - |
| 1778128254 | 10.56° C | 75% | 1008.9 hPa | 0 mm | - | 0 W/m² | - |
| 1778127952 | 10.56° C | 75% | 1008.9 hPa | 0 mm | - | 0 W/m² | - |
| 1778127052 | 10.56° C | 76% | 1009.1 hPa | 0 mm | - | 0 W/m² | - |
| 1778125851 | 10.56° C | 78% | 1009.3 hPa | 0 mm | - | 0 W/m² | - |
* Rain latest hour (hover to see other rain measurements)
** Current wind speed in m/s (hover to see current wind gust speed)